Austin Tobin — WDG2935 — position and weather

sailwx.info

Track history (hours):
 
Tides and Currents Weather Stations Pressure Air Temp Water Temp Dewpoint Dewpoint Depression Visibility Wind Speed Wind Dir Waves Ship Positions

Austin Tobin

Owner: PORT IMPERIAL FERRY, WEEHAWKEN, NJ. More information available from US FCC via Universal Licensing System and Coast Guard Vessel Documentation Center.

Last reported at 2018-Jul-13 23:45 UTC. Time now 2018-Jul-16 02:52 UTC.
Position N 40°41' W 074°04'.

Length 21 m; draft 2 m.

Type: Passenger vessel. MMSI: 366834150.

Date/timePositionNaut miles runAvg speedWind from/ knotsBaromVisibWave heightAir tempDewpointWater temp
2018-Jul-13 23:45N 40°41' W 074°04'311.9
2018-Jul-13 23:30N 40°42' W 074°01'2 3.8
2018-Jul-13 23:00N 40°41' W 074°03'1 2.5
2018-Jul-13 22:31N 40°41' W 074°04'0 0.5
2018-Jul-13 22:00N 40°41' W 074°05'1 1.0
2018-Jul-13 21:30N 40°41' W 074°04'2 3.1
2018-Jul-13 21:01N 40°41' W 074°02'1 2.5
2018-Jul-13 20:30N 40°42' W 074°01'0 0.1
2018-Jul-13 20:01N 40°42' W 074°01'3 5.9
2018-Jul-13 19:30N 40°41' W 074°04'0 0.0
2018-Jul-13 15:30N 40°41' W 074°04'611.8
2018-Jul-13 15:00N 40°46' W 074°01'0 0.0
2018-Jul-13 14:00N 40°46' W 074°01'611.4
2018-Jul-13 13:30N 40°41' W 074°05'0 0.8
2018-Jul-13 13:01N 40°41' W 074°04'2 3.6
2018-Jul-13 12:31N 40°41' W 074°02'1 1.8
2018-Jul-13 12:01N 40°42' W 074°01'1 1.6
2018-Jul-13 11:31N 40°42' W 074°02'2 3.8
2018-Jul-13 11:01N 40°41' W 074°04'0 0.8
2018-Jul-13 10:30N 40°41' W 074°05'0 0.1
2018-Jul-13 10:00N 40°41' W 074°04'0 0.0
2018-Jul-12 23:39N 40°41' W 074°04'319.6
2018-Jul-12 23:30N 40°42' W 074°01'2 3.9
2018-Jul-12 23:00N 40°41' W 074°03'1 2.5
2018-Jul-12 22:30N 40°41' W 074°04'0 0.6
2018-Jul-12 22:00N 40°41' W 074°05'1 2.0
2018-Jul-12 21:31N 40°41' W 074°04'1 2.7
2018-Jul-12 21:00N 40°41' W 074°02'1 2.5
2018-Jul-12 20:30N 40°42' W 074°01'0 0.0
2018-Jul-12 20:00N 40°42' W 074°01'3 0.5
2018-Jul-12 14:02N 40°41' W 074°04'0 2.5
2018-Jul-12 14:00N 40°41' W 074°04'0 0.2
2018-Jul-12 13:30N 40°41' W 074°05'1 1.4
2018-Jul-12 13:01N 40°41' W 074°04'2 4.2
2018-Jul-12 12:31N 40°42' W 074°01'1 1.3
2018-Jul-12 12:00N 40°42' W 074°01'1 2.6
2018-Jul-12 11:31N 40°41' W 074°02'1 2.9
2018-Jul-12 11:00N 40°41' W 074°04'1 1.2
2018-Jul-12 10:30N 40°41' W 074°04'0 0.4
2018-Jul-12 10:00N 40°41' W 074°04'1 0.1
2018-Jul-11 23:38N 40°41' W 074°04'321.2
2018-Jul-11 23:30N 40°42' W 074°01'2 3.3
2018-Jul-11 23:01N 40°41' W 074°02'2 3.4
2018-Jul-11 22:30N 40°41' W 074°04'0 0.7
2018-Jul-11 22:00N 40°41' W 074°05'1 1.8
2018-Jul-11 21:30N 40°41' W 074°04'1 2.6
2018-Jul-11 21:01N 40°41' W 074°02'1 2.3
2018-Jul-11 20:30N 40°42' W 074°01'0 0.4
2018-Jul-11 20:00N 40°42' W 074°01'3 5.8
2018-Jul-11 19:30N 40°41' W 074°04'0 0.0
2018-Jul-11 15:37N 40°41' W 074°04'1 9.9
2018-Jul-11 15:30N 40°41' W 074°03'6 4.2
2018-Jul-11 14:04N 40°46' W 074°01'1 7.4
2018-Jul-11 13:58N 40°46' W 074°00'0 0.1
2018-Jul-11 13:30N 40°46' W 074°00'3 6.4
2018-Jul-11 13:00N 40°43' W 074°02'4 0.1
2018-Jul-09 11:40N 40°46' W 074°01'0 0.0
2018-Jul-09 02:11N 40°46' W 074°01'0 0.0
2018-Jul-08 22:58N 40°46' W 074°01'4 8.4
2018-Jul-08 22:30N 40°43' W 074°02'2 1.1
2018-Jul-08 20:58N 40°42' W 073°60'2 3.5
2018-Jul-08 20:30N 40°43' W 074°02'4 3.0
2018-Jul-08 19:12N 40°45' W 073°58'313.2
2018-Jul-08 18:57N 40°42' W 074°00'1 2.5
2018-Jul-08 18:30N 40°42' W 074°02'3 2.3
2018-Jul-08 17:11N 40°44' W 073°58'212.6
2018-Jul-08 17:00N 40°42' W 074°00'4 7.0
2018-Jul-08 16:30N 40°46' W 074°00'0 0.3
2018-Jul-08 15:59N 40°46' W 074°00'3 6.0
2018-Jul-08 15:30N 40°43' W 074°01'2 4.5
2018-Jul-08 15:00N 40°45' W 074°01'2 3.2
2018-Jul-08 14:30N 40°44' W 074°01'3 5.5
2018-Jul-08 13:57N 40°47' W 074°00'1 0.0
2018-Jul-08 00:33N 40°46' W 074°00'0 4.9
2018-Jul-08 00:29N 40°46' W 074°01'3 5.8
2018-Jul-08 00:00N 40°43' W 074°01'3 5.4
2018-Jul-07 23:29N 40°46' W 074°00'3 5.8
2018-Jul-07 23:00N 40°43' W 074°01'3 5.2
2018-Jul-07 22:28N 40°46' W 074°00'3 6.1
2018-Jul-07 22:01N 40°43' W 074°01'3 5.0
2018-Jul-07 21:27N 40°46' W 074°00'3 6.4
2018-Jul-07 21:00N 40°43' W 074°01'3 5.0
2018-Jul-07 20:27N 40°46' W 074°00'3 6.4
2018-Jul-07 20:00N 40°43' W 074°01'3 4.8
2018-Jul-07 19:25N 40°46' W 074°00'2 4.8
2018-Jul-07 19:00N 40°44' W 074°01'2 3.4
2018-Jul-07 18:26N 40°46' W 074°00'2 5.6
2018-Jul-07 18:00N 40°43' W 074°01'2 4.6
2018-Jul-07 17:28N 40°46' W 074°00'3 6.2
2018-Jul-07 17:00N 40°43' W 074°01'3 5.1
2018-Jul-07 16:27N 40°46' W 074°00'3 6.3
2018-Jul-07 16:00N 40°43' W 074°01'3 5.3
2018-Jul-07 15:29N 40°46' W 074°00'3 6.2
2018-Jul-07 15:00N 40°43' W 074°01'3 5.4
2018-Jul-07 14:28N 40°46' W 074°00'3 6.0
2018-Jul-07 14:00N 40°43' W 074°01'3 0.3
2018-Jul-07 02:14N 40°46' W 074°01'419.4
2018-Jul-07 02:01N 40°42' W 074°00'0 0.5
2018-Jul-07 01:30N 40°42' W 074°01'0 0.7
2018-Jul-07 01:01N 40°42' W 074°01'1 2.6
2018-Jul-07 00:30N 40°41' W 074°02'2 3.2
2018-Jul-07 00:01N 40°42' W 074°01'0 0.6
2018-Jul-06 23:30N 40°42' W 074°00'0 0.0
2018-Jul-06 23:01N 40°42' W 074°00'0 0.0
2018-Jul-06 22:30N 40°42' W 074°00'0 0.0
2018-Jul-06 22:00N 40°42' W 074°00'0 0.0
2018-Jul-06 21:31N 40°42' W 074°00'0 0.0
2018-Jul-06 21:00N 40°42' W 074°00'0 0.0
2018-Jul-06 20:30N 40°42' W 074°00'0 0.0
2018-Jul-06 20:00N 40°42' W 074°00'1 2.8
2018-Jul-06 19:30N 40°43' W 074°02'1 2.7
2018-Jul-06 19:00N 40°42' W 074°00'1 2.8
2018-Jul-06 18:30N 40°43' W 074°02'1 2.7
2018-Jul-06 18:00N 40°42' W 074°00'2 4.3
2018-Jul-06 17:31N 40°44' W 074°02'2 0.7
2018-Jul-06 14:03N 40°46' W 074°01'120.1
2018-Jul-06 14:00N 40°45' W 074°01'3 5.6
2018-Jul-06 13:30N 40°43' W 074°03'0 0.0
2018-Jul-06 13:00N 40°43' W 074°03'0 0.0
2018-Jul-06 12:30N 40°43' W 074°03'0 0.0
2018-Jul-06 12:01N 40°43' W 074°03'0 0.0
2018-Jul-06 11:30N 40°43' W 074°03'0 0.0
2018-Jul-06 11:00N 40°43' W 074°03'0 0.0
2018-Jul-06 10:30N 40°43' W 074°03'0 0.0
2018-Jul-06 10:00N 40°43' W 074°03'0 0.0
2018-Jul-06 02:09N 40°43' W 074°03'212.5
2018-Jul-06 02:00N 40°42' W 074°01'3 5.7
2018-Jul-06 01:30N 40°41' W 074°04'3 5.3
2018-Jul-06 01:01N 40°42' W 074°01'3 5.1
2018-Jul-06 00:31N 40°41' W 074°04'3 5.4
2018-Jul-06 00:00N 40°42' W 074°01'0 0.7
2018-Jul-05 23:31N 40°42' W 074°00'0 0.1
2018-Jul-05 23:01N 40°42' W 074°00'0 0.0
2018-Jul-05 22:31N 40°42' W 074°00'0 0.0
2018-Jul-05 22:01N 40°42' W 074°00'0 0.1
2018-Jul-05 21:31N 40°42' W 074°00'0 0.1
2018-Jul-05 21:00N 40°42' W 074°00'0 0.0
2018-Jul-05 20:30N 40°42' W 074°00'0 0.0
2018-Jul-05 20:01N 40°42' W 074°00'1 2.8
2018-Jul-05 19:30N 40°43' W 074°02'1 2.8
2018-Jul-05 19:00N 40°42' W 074°00'1 2.8
2018-Jul-05 18:31N 40°43' W 074°02'1 2.7
2018-Jul-05 18:00N 40°42' W 074°00'2 4.4
2018-Jul-05 17:30N 40°44' W 074°02'2 0.7
2018-Jul-05 14:12N 40°46' W 074°00'4 5.9
2018-Jul-05 13:30N 40°42' W 074°00'0 0.0
2018-Jul-05 13:00N 40°42' W 074°00'0 0.0
2018-Jul-05 12:30N 40°42' W 074°00'0 0.0
2018-Jul-05 12:01N 40°42' W 074°00'0 0.0
2018-Jul-05 11:31N 40°42' W 074°00'3 0.1
2018-Jul-04 00:18N 40°45' W 074°01'310.7
2018-Jul-04 00:01N 40°42' W 074°00'  
Track history (hours):
 
Tides and Currents Weather Stations Pressure Air Temp Water Temp Dewpoint Dewpoint Depression Visibility Wind Speed Wind Dir Waves Ship Positions

Austin Tobin

Owner: PORT IMPERIAL FERRY, WEEHAWKEN, NJ. More information available from US FCC via Universal Licensing System and Coast Guard Vessel Documentation Center.

Last reported at 2018-Jul-13 23:45 UTC. Time now 2018-Jul-16 02:52 UTC.
Position N 40°41' W 074°04'.

Length 21 m; draft 2 m.

Type: Passenger vessel. MMSI: 366834150.

Date/timePositionNaut miles runAvg speedWind from/ knotsBaromVisibWave heightAir tempDewpointWater temp
2018-Jul-13 23:45N 40°41' W 074°04'311.9
2018-Jul-13 23:30N 40°42' W 074°01'2 3.8
2018-Jul-13 23:00N 40°41' W 074°03'1 2.5
2018-Jul-13 22:31N 40°41' W 074°04'0 0.5
2018-Jul-13 22:00N 40°41' W 074°05'1 1.0
2018-Jul-13 21:30N 40°41' W 074°04'2 3.1
2018-Jul-13 21:01N 40°41' W 074°02'1 2.5
2018-Jul-13 20:30N 40°42' W 074°01'0 0.1
2018-Jul-13 20:01N 40°42' W 074°01'3 5.9
2018-Jul-13 19:30N 40°41' W 074°04'0 0.0
2018-Jul-13 15:30N 40°41' W 074°04'611.8
2018-Jul-13 15:00N 40°46' W 074°01'0 0.0
2018-Jul-13 14:00N 40°46' W 074°01'611.4
2018-Jul-13 13:30N 40°41' W 074°05'0 0.8
2018-Jul-13 13:01N 40°41' W 074°04'2 3.6
2018-Jul-13 12:31N 40°41' W 074°02'1 1.8
2018-Jul-13 12:01N 40°42' W 074°01'1 1.6
2018-Jul-13 11:31N 40°42' W 074°02'2 3.8
2018-Jul-13 11:01N 40°41' W 074°04'0 0.8
2018-Jul-13 10:30N 40°41' W 074°05'0 0.1
2018-Jul-13 10:00N 40°41' W 074°04'0 0.0
2018-Jul-12 23:39N 40°41' W 074°04'319.6
2018-Jul-12 23:30N 40°42' W 074°01'2 3.9
2018-Jul-12 23:00N 40°41' W 074°03'1 2.5
2018-Jul-12 22:30N 40°41' W 074°04'0 0.6
2018-Jul-12 22:00N 40°41' W 074°05'1 2.0
2018-Jul-12 21:31N 40°41' W 074°04'1 2.7
2018-Jul-12 21:00N 40°41' W 074°02'1 2.5
2018-Jul-12 20:30N 40°42' W 074°01'0 0.0
2018-Jul-12 20:00N 40°42' W 074°01'3 0.5
2018-Jul-12 14:02N 40°41' W 074°04'0 2.5
2018-Jul-12 14:00N 40°41' W 074°04'0 0.2
2018-Jul-12 13:30N 40°41' W 074°05'1 1.4
2018-Jul-12 13:01N 40°41' W 074°04'2 4.2
2018-Jul-12 12:31N 40°42' W 074°01'1 1.3
2018-Jul-12 12:00N 40°42' W 074°01'1 2.6
2018-Jul-12 11:31N 40°41' W 074°02'1 2.9
2018-Jul-12 11:00N 40°41' W 074°04'1 1.2
2018-Jul-12 10:30N 40°41' W 074°04'0 0.4
2018-Jul-12 10:00N 40°41' W 074°04'1 0.1
2018-Jul-11 23:38N 40°41' W 074°04'321.2
2018-Jul-11 23:30N 40°42' W 074°01'2 3.3
2018-Jul-11 23:01N 40°41' W 074°02'2 3.4
2018-Jul-11 22:30N 40°41' W 074°04'0 0.7
2018-Jul-11 22:00N 40°41' W 074°05'1 1.8
2018-Jul-11 21:30N 40°41' W 074°04'1 2.6
2018-Jul-11 21:01N 40°41' W 074°02'1 2.3
2018-Jul-11 20:30N 40°42' W 074°01'0 0.4
2018-Jul-11 20:00N 40°42' W 074°01'3 5.8
2018-Jul-11 19:30N 40°41' W 074°04'0 0.0
2018-Jul-11 15:37N 40°41' W 074°04'1 9.9
2018-Jul-11 15:30N 40°41' W 074°03'6 4.2
2018-Jul-11 14:04N 40°46' W 074°01'1 7.4
2018-Jul-11 13:58N 40°46' W 074°00'0 0.1
2018-Jul-11 13:30N 40°46' W 074°00'3 6.4
2018-Jul-11 13:00N 40°43' W 074°02'4 0.1
2018-Jul-09 11:40N 40°46' W 074°01'0 0.0
2018-Jul-09 02:11N 40°46' W 074°01'0 0.0
2018-Jul-08 22:58N 40°46' W 074°01'4 8.4
2018-Jul-08 22:30N 40°43' W 074°02'2 1.1
2018-Jul-08 20:58N 40°42' W 073°60'2 3.5
2018-Jul-08 20:30N 40°43' W 074°02'4 3.0
2018-Jul-08 19:12N 40°45' W 073°58'313.2
2018-Jul-08 18:57N 40°42' W 074°00'1 2.5
2018-Jul-08 18:30N 40°42' W 074°02'3 2.3
2018-Jul-08 17:11N 40°44' W 073°58'212.6
2018-Jul-08 17:00N 40°42' W 074°00'4 7.0
2018-Jul-08 16:30N 40°46' W 074°00'0 0.3
2018-Jul-08 15:59N 40°46' W 074°00'3 6.0
2018-Jul-08 15:30N 40°43' W 074°01'2 4.5
2018-Jul-08 15:00N 40°45' W 074°01'2 3.2
2018-Jul-08 14:30N 40°44' W 074°01'3 5.5
2018-Jul-08 13:57N 40°47' W 074°00'1 0.0
2018-Jul-08 00:33N 40°46' W 074°00'0 4.9
2018-Jul-08 00:29N 40°46' W 074°01'3 5.8
2018-Jul-08 00:00N 40°43' W 074°01'3 5.4
2018-Jul-07 23:29N 40°46' W 074°00'3 5.8
2018-Jul-07 23:00N 40°43' W 074°01'3 5.2
2018-Jul-07 22:28N 40°46' W 074°00'3 6.1
2018-Jul-07 22:01N 40°43' W 074°01'3 5.0
2018-Jul-07 21:27N 40°46' W 074°00'3 6.4
2018-Jul-07 21:00N 40°43' W 074°01'3 5.0
2018-Jul-07 20:27N 40°46' W 074°00'3 6.4
2018-Jul-07 20:00N 40°43' W 074°01'3 4.8
2018-Jul-07 19:25N 40°46' W 074°00'2 4.8
2018-Jul-07 19:00N 40°44' W 074°01'2 3.4
2018-Jul-07 18:26N 40°46' W 074°00'2 5.6
2018-Jul-07 18:00N 40°43' W 074°01'2 4.6
2018-Jul-07 17:28N 40°46' W 074°00'3 6.2
2018-Jul-07 17:00N 40°43' W 074°01'3 5.1
2018-Jul-07 16:27N 40°46' W 074°00'3 6.3
2018-Jul-07 16:00N 40°43' W 074°01'3 5.3
2018-Jul-07 15:29N 40°46' W 074°00'3 6.2
2018-Jul-07 15:00N 40°43' W 074°01'3 5.4
2018-Jul-07 14:28N 40°46' W 074°00'3 6.0
2018-Jul-07 14:00N 40°43' W 074°01'3 0.3
2018-Jul-07 02:14N 40°46' W 074°01'419.4
2018-Jul-07 02:01N 40°42' W 074°00'0 0.5
2018-Jul-07 01:30N 40°42' W 074°01'0 0.7
2018-Jul-07 01:01N 40°42' W 074°01'1 2.6
2018-Jul-07 00:30N 40°41' W 074°02'2 3.2
2018-Jul-07 00:01N 40°42' W 074°01'0 0.6
2018-Jul-06 23:30N 40°42' W 074°00'0 0.0
2018-Jul-06 23:01N 40°42' W 074°00'0 0.0
2018-Jul-06 22:30N 40°42' W 074°00'0 0.0
2018-Jul-06 22:00N 40°42' W 074°00'0 0.0
2018-Jul-06 21:31N 40°42' W 074°00'0 0.0
2018-Jul-06 21:00N 40°42' W 074°00'0 0.0
2018-Jul-06 20:30N 40°42' W 074°00'0 0.0
2018-Jul-06 20:00N 40°42' W 074°00'1 2.8
2018-Jul-06 19:30N 40°43' W 074°02'1 2.7
2018-Jul-06 19:00N 40°42' W 074°00'1 2.8
2018-Jul-06 18:30N 40°43' W 074°02'1 2.7
2018-Jul-06 18:00N 40°42' W 074°00'2 4.3
2018-Jul-06 17:31N 40°44' W 074°02'2 0.7
2018-Jul-06 14:03N 40°46' W 074°01'120.1
2018-Jul-06 14:00N 40°45' W 074°01'3 5.6
2018-Jul-06 13:30N 40°43' W 074°03'0 0.0
2018-Jul-06 13:00N 40°43' W 074°03'0 0.0
2018-Jul-06 12:30N 40°43' W 074°03'0 0.0
2018-Jul-06 12:01N 40°43' W 074°03'0 0.0
2018-Jul-06 11:30N 40°43' W 074°03'0 0.0
2018-Jul-06 11:00N 40°43' W 074°03'0 0.0
2018-Jul-06 10:30N 40°43' W 074°03'0 0.0
2018-Jul-06 10:00N 40°43' W 074°03'0 0.0
2018-Jul-06 02:09N 40°43' W 074°03'212.5
2018-Jul-06 02:00N 40°42' W 074°01'3 5.7
2018-Jul-06 01:30N 40°41' W 074°04'3 5.3
2018-Jul-06 01:01N 40°42' W 074°01'3 5.1
2018-Jul-06 00:31N 40°41' W 074°04'3 5.4
2018-Jul-06 00:00N 40°42' W 074°01'0 0.7
2018-Jul-05 23:31N 40°42' W 074°00'0 0.1
2018-Jul-05 23:01N 40°42' W 074°00'0 0.0
2018-Jul-05 22:31N 40°42' W 074°00'0 0.0
2018-Jul-05 22:01N 40°42' W 074°00'0 0.1
2018-Jul-05 21:31N 40°42' W 074°00'0 0.1
2018-Jul-05 21:00N 40°42' W 074°00'0 0.0
2018-Jul-05 20:30N 40°42' W 074°00'0 0.0
2018-Jul-05 20:01N 40°42' W 074°00'1 2.8
2018-Jul-05 19:30N 40°43' W 074°02'1 2.8
2018-Jul-05 19:00N 40°42' W 074°00'1 2.8
2018-Jul-05 18:31N 40°43' W 074°02'1 2.7
2018-Jul-05 18:00N 40°42' W 074°00'2 4.4
2018-Jul-05 17:30N 40°44' W 074°02'2 0.7
2018-Jul-05 14:12N 40°46' W 074°00'4 5.9
2018-Jul-05 13:30N 40°42' W 074°00'0 0.0
2018-Jul-05 13:00N 40°42' W 074°00'0 0.0
2018-Jul-05 12:30N 40°42' W 074°00'0 0.0
2018-Jul-05 12:01N 40°42' W 074°00'0 0.0
2018-Jul-05 11:31N 40°42' W 074°00'3 0.1
2018-Jul-04 00:18N 40°45' W 074°01'310.7
2018-Jul-04 00:01N 40°42' W 074°00'  

Dump ship's entire track history